[[{"header":{"parameterUnit":"m.s-1","parameterCategory":1,"la1":30.2991,"la2":30.254,"lo1":-89.0895,"lo2":-89.0444,"dy":0.0017,"dx":0.0017,"nx":28,"ny":28,"refTime":"2024-11-23T03:00:00:Z","depth":0,"parameterNumber":2,"parameterNumberName":"U-component_of_WINDS"},"data":[0,0,0,0,0,0,0,0,0,0,0,0,0,0,0,0,0,0,0,0,0,0,0,0,0,0,0,0,0,0,0,0,0,0,0,0,0,0,0,0,0,0,0,0,0,0,0,0,0,0,0,0,0,0,0,0,0,0,-2.0421,-2.0422,0,-2.0507,-2.0508,-2.0509,-2.0419,-2.0416,-2.0412,-2.0409,-2.0499,-2.0504,-2.051,0,0,0,0,0,0,0,0,0,0,0,0,0,-2.0179,-2.0184,-2.0421,-2.0422,-2.0423,-2.0507,-2.0508,-2.0509,-2.042,-2.0415,-2.0411,-2.0407,-2.0497,-2.0503,-2.051,0,0,0,0,0,0,0,0,0,0,0,0,0,-2.0277,-2.0186,-2.042,-2.0388,-2.0386,-2.0506,-2.0508,-2.0509,-2.0421,-2.0415,-2.041,-2.0405,-2.0495,-2.0503,-2.0511,-2.0667,0,0,-2.0537,-2.054,0,0,0,0,0,0,0,0,-2.0271,-2.0285,-2.0392,-2.0391,-2.0389,-2.0447,-2.0455,-2.0562,-2.0422,-2.0408,-2.0409,-2.0403,-2.0486,-2.0494,-2.0522,-2.0672,-2.0676,-2.0538,-2.0543,-2.0546,-2.0549,0,0,0,0,0,0,0,-2.0264,-2.0281,-2.0455,-2.0394,-2.0392,-2.037,-2.0378,-2.0475,-2.0475,-2.0408,-2.0402,-2.0414,-2.0484,-2.0514,-2.0524,-2.0677,-2.0537,-2.0545,-2.055,-2.0553,-2.0958,-2.0963,0,0,0,0,0,0,-2.0261,-2.0276,-2.0452,-2.0457,-2.0316,-2.0378,-2.0387,-2.0433,-2.0474,-2.0475,-2.0418,-2.0409,-2.0502,-2.0514,-2.0526,-2.0712,-2.0546,-2.0554,-2.0559,-2.0952,-2.0959,-2.0965,0,0,0,0,0,0,-2.0256,-2.0278,-2.0448,-2.0365,-2.0385,-2.0388,-2.0441,-2.0438,-2.0468,-2.0481,-2.048,-2.0449,-2.0499,-2.0515,-2.0633,-2.0713,-2.0558,-2.0566,-2.0945,-2.0954,-2.0962,-2.1084,0,0,0,0,0,0,-2.025,-2.0276,-2.0336,-2.0367,-2.039,-2.0554,-2.0446,-2.0443,-2.0483,-2.0472,-2.051,-2.0511,-2.0496,-2.0621,-2.0641,-2.0722,-2.0572,-2.0938,-2.0949,-2.0959,-2.1073,-2.1096,-2.1115,0,0,0,0,0,-2.0241,-2.0368,-2.034,-2.0361,-2.0465,-2.0559,-2.0572,-2.0551,-2.049,-2.055,-2.0557,-2.051,-2.0701,-2.0633,-2.0656,-2.0741,-2.0933,-2.0946,-2.0958,-2.1063,-2.1091,-2.1115,0,0,0,0,0,0,-2.0347,-2.0371,-2.034,-2.048,-2.0518,-2.0543,-2.0618,-2.0582,-2.0638,-2.0626,-2.0598,-2.0607,-2.0732,-2.0748,-2.0672,-2.0893,-2.0807,-2.0825,-2.0879,-2.0906,-2.0926,-2.092,-2.0579,0,0,0,0,0,-2.0387,-2.0461,-2.0478,-2.06,-2.062,-2.0616,-2.0656,-2.0637,-2.0675,-2.0691,-2.0707,-2.0746,-2.0815,-2.0861,-2.0925,-2.1074,-2.1081,-2.1143,-2.1164,-2.1182,-2.1198,-2.1277,-2.1305,-2.1007,-2.1007,-2.1006,0,0,-2.0469,-2.0492,-2.054,-2.0621,-2.0648,-2.0726,-2.063,-2.0717,-2.0774,-2.0704,-2.0817,-2.083,-2.0871,-2.1006,-2.1065,-2.1023,-2.1281,-2.1198,-2.1212,-2.1219,-2.1293,-2.1321,-2.1346,-2.1015,-2.1014,-2.1013,0,0,-2.066,-2.0684,-2.0788,-2.0816,-2.0858,-2.0854,-2.0879,-2.091,-2.0916,-2.1028,-2.0977,-2.1044,-2.1163,-2.1194,-2.1226,-2.1426,-2.1385,-2.1448,-2.1559,-2.1637,-2.166,-2.1681,-2.1752,-2.1778,-2.1463,-2.1464,-2.1464,0,-2.0757,-2.0872,-2.0846,-2.0936,-2.0973,-2.0912,-2.1017,-2.1046,-2.1106,-2.1133,-2.1084,-2.1231,-2.1255,-2.1395,-2.1444,-2.1471,-2.1499,-2.1444,-2.1659,-2.1679,-2.1698,-2.1766,-2.1793,-2.1471,-2.147,-2.147,-2.1469,0,-2.099,-2.107,-2.1149,-2.1208,-2.1254,-2.1351,-2.1339,-2.1388,-2.1365,-2.1366,-2.148,-2.1506,-2.1574,-2.1605,-2.1584,-2.1743,-2.1715,-2.1663,-2.1575,-2.1734,-2.1797,-2.1823,-2.1482,-2.1479,-2.1477,-2.1475,0,0,-2.1251,-2.1293,-2.1323,-2.1348,-2.1389,-2.145,-2.1544,-2.1609,-2.1652,-2.1695,-2.1773,-2.1874,-2.1826,-2.1861,-2.1842,-2.191,-2.2067,-2.1849,-2.185,-2.1889,-2.2243,-2.2282,-2.2313,-2.2038,-2.2043,-2.2047,-2.2239,0,-2.1442,-2.1605,-2.1583,-2.1739,-2.1812,-2.1754,-2.1836,-2.1869,-2.1873,-2.1935,-2.1938,-2.2011,-2.1941,-2.1963,-2.2027,-2.2034,-2.2137,-2.202,-2.2111,-2.2114,-2.2103,-2.2346,-2.2388,-2.2568,-2.2264,-2.2268,-2.2271,0,-2.1688,-2.1739,-2.1902,-2.193,-2.196,-2.2033,-2.2091,-2.2151,-2.2188,-2.2185,-2.2225,-2.2193,-2.2286,-2.2196,-2.2324,-2.2244,-2.228,-2.2288,-2.2295,-2.2303,-2.2203,-2.2361,-2.2625,-2.2652,-2.231,-2.2306,-2.2304,0,-2.1862,-2.1972,-2.2083,-2.2107,-2.2142,-2.2195,-2.2212,-2.2243,-2.2283,-2.2333,-2.2359,-2.242,-2.2453,-2.2501,-2.2486,-2.2422,-2.2617,-2.2526,-2.2617,-2.2618,-2.2662,-2.266,-2.2936,-2.2685,-2.2684,-2.2684,-2.2683,0,-2.2078,-2.218,-2.2162,-2.223,-2.2342,-2.2316,-2.2428,-2.2438,-2.2466,-2.2535,-2.2489,-2.2555,-2.253,-2.2595,-2.2584,-2.2691,-2.2707,-2.2707,-2.2703,-2.2712,-2.2712,-2.2735,-2.2723,-2.2691,-2.2689,-2.2688,-2.2686,0,-2.2293,-2.2284,-2.2402,-2.2425,-2.2433,-2.2515,-2.2534,-2.2598,-2.2597,-2.2685,-2.2704,-2.2703,-2.2776,-2.2766,-2.2847,-2.284,-2.2973,-2.2954,-2.2961,-2.2957,-2.3049,-2.3041,-2.3351,-2.339,-2.3113,-2.3116,-2.3118,0,-2.2432,-2.2509,-2.254,-2.2582,-2.2603,-2.2673,-2.2713,-2.269,-2.2734,-2.278,-2.2839,-2.2907,-2.2961,-2.3081,-2.3087,-2.3149,-2.3131,-2.3235,-2.314,-2.3146,-2.3132,-2.3128,-2.3136,-2.3254,-2.3258,-2.326,-2.3262,0,-2.2679,-2.2671,-2.2731,-2.2789,-2.2838,-2.2883,-2.2924,-2.2961,-2.2941,-2.2993,-2.3067,-2.3109,-2.3191,-2.326,-2.3318,-2.3335,-2.3296,-2.3292,-2.3316,-2.3326,-2.3327,-2.3328,-2.3013,-2.3285,-2.3283,-2.3281,-2.328,-2.3279,-2.286,-2.2925,-2.2957,-2.3025,-2.3052,-2.3091,-2.3152,-2.3158,-2.3219,-2.3284,-2.3266,-2.335,-2.3383,-2.3456,-2.348,-2.3544,-2.3506,-2.3542,-2.3551,-2.356,-2.3571,-2.3317,-2.3555,-2.3554,-2.3553,-2.3553,-2.3552,0,-2.3105,-2.3122,-2.3185,-2.3242,-2.3296,-2.3252,-2.3294,-2.3342,-2.3416,-2.345,-2.3503,-2.3588,-2.3654,-2.3664,-2.3727,-2.3777,-2.376,-2.3794,-2.3791,-2.3795,-2.3602,-2.3574,-2.3806,-2.3806,-2.3806,-2.3806,-2.3806,-2.3806,-2.3239,-2.3347,-2.3342,-2.3463,-2.3479,-2.356,-2.3588,-2.3623,-2.3649,-2.3745,-2.38,-2.3806,-2.383,-2.3894,-2.3952,-2.3953,-2.3979,-2.402,-2.4014,-2.3834,-2.3809,-2.3785,-2.3759,-2.4026,-2.4026,-2.4202,-2.4204,-2.4205]},{"header":{"parameterUnit":"m.s-1","parameterCategory":1,"la1":30.2991,"la2":30.254,"lo1":-89.0895,"lo2":-89.0444,"dy":0.0017,"dx":0.0017,"nx":28,"ny":28,"refTime":"2024-11-23T03:00:00:Z","depth":0,"parameterNumber":3,"parameterNumberName":"V-component_of_WINDS"},"data":[0,0,0,0,0,0,0,0,0,0,0,0,0,0,0,0,0,0,0,0,0,0,0,0,0,0,0,0,0,0,0,0,0,0,0,0,0,0,0,0,0,0,0,0,0,0,0,0,0,0,0,0,0,0,0,0,0,0,-3.9373,-3.9374,0,-3.9465,-3.9466,-3.9467,-3.9428,-3.9426,-3.9424,-3.9422,-3.9512,-3.9516,-3.9521,0,0,0,0,0,0,0,0,0,0,0,0,0,-3.9161,-3.9165,-3.9373,-3.9374,-3.9376,-3.9465,-3.9466,-3.9467,-3.9429,-3.9426,-3.9424,-3.9421,-3.9511,-3.9516,-3.9521,0,0,0,0,0,0,0,0,0,0,0,0,0,-3.9253,-3.9166,-3.9373,-3.9367,-3.9368,-3.9464,-3.9466,-3.9467,-3.9429,-3.9426,-3.9423,-3.942,-3.9509,-3.9515,-3.9522,-3.9628,0,0,-3.9542,-3.9545,0,0,0,0,0,0,0,0,-3.9247,-3.926,-3.9367,-3.9368,-3.9369,-3.9432,-3.9424,-3.9521,-3.943,-3.9406,-3.9422,-3.9418,-3.9488,-3.9496,-3.952,-3.9633,-3.9636,-3.9543,-3.9547,-3.955,-3.9551,0,0,0,0,0,0,0,-3.9241,-3.9256,-3.9409,-3.9369,-3.937,-3.9358,-3.9368,-3.9442,-3.9464,-3.9408,-3.9405,-3.9417,-3.9487,-3.9514,-3.9522,-3.9638,-3.9542,-3.9548,-3.9553,-3.9555,-3.9839,-3.9842,0,0,0,0,0,0,-3.9235,-3.9251,-3.9406,-3.9412,-3.9299,-3.9365,-3.9376,-3.9415,-3.9463,-3.9467,-3.9419,-3.9415,-3.9504,-3.9514,-3.9525,-3.9651,-3.955,-3.9556,-3.956,-3.9836,-3.984,-3.9844,0,0,0,0,0,0,-3.9231,-3.925,-3.9403,-3.9331,-3.935,-3.9372,-3.9417,-3.9418,-3.9445,-3.9472,-3.9475,-3.9443,-3.9502,-3.9516,-3.9603,-3.9653,-3.9559,-3.9565,-3.9831,-3.9837,-3.9842,-3.9905,0,0,0,0,0,0,-3.9225,-3.9248,-3.929,-3.9332,-3.9354,-3.9481,-3.942,-3.9422,-3.9457,-3.9451,-3.9495,-3.9499,-3.95,-3.9593,-3.9609,-3.9661,-3.957,-3.9827,-3.9834,-3.984,-3.9898,-3.9912,-3.9923,0,0,0,0,0,-3.9217,-3.9304,-3.9293,-3.9311,-3.9407,-3.9484,-3.9496,-3.9497,-3.9461,-3.9502,-3.9519,-3.9497,-3.9646,-3.9602,-3.962,-3.9675,-3.9824,-3.9832,-3.984,-3.9893,-3.9909,-3.9923,0,0,0,0,0,0,-3.9267,-3.931,-3.9297,-3.94,-3.9439,-3.9477,-3.9529,-3.9515,-3.9563,-3.9556,-3.9554,-3.9564,-3.9654,-3.9673,-3.9624,-3.9779,-3.9729,-3.9741,-3.9763,-3.9779,-3.9791,-3.9784,-3.9575,0,0,0,0,0,-3.929,-3.935,-3.9384,-3.9471,-3.9491,-3.9507,-3.9541,-3.9538,-3.9577,-3.9593,-3.9617,-3.9654,-3.9709,-3.9745,-3.9797,-3.9901,-3.9909,-3.9947,-3.996,-3.997,-3.998,-4.0033,-4.005,-3.987,-3.987,-3.987,0,0,-3.9338,-3.9368,-3.9406,-3.9482,-3.9511,-3.9571,-3.9521,-3.9588,-3.9632,-3.9603,-3.9686,-3.9705,-3.9746,-3.9841,-3.9885,-3.986,-4.0031,-3.998,-3.9988,-3.9992,-4.0043,-4.006,-4.0076,-3.9875,-3.9874,-3.9874,0,0,-3.9455,-3.9486,-3.9561,-3.9591,-3.9637,-3.9646,-3.9665,-3.9705,-3.9716,-3.98,-3.9779,-3.9831,-3.9926,-3.9956,-3.9983,-4.0111,-4.0091,-4.0128,-4.0192,-4.0244,-4.0259,-4.0271,-4.0314,-4.033,-4.0138,-4.0138,-4.0138,0,-3.9509,-3.96,-3.9601,-3.9669,-3.9702,-3.9679,-3.9754,-3.9783,-3.9843,-3.9865,-3.9837,-3.9955,-3.9981,-4.0082,-4.0113,-4.0137,-4.0155,-4.0122,-4.0257,-4.0269,-4.0281,-4.0322,-4.0339,-4.0142,-4.0141,-4.0141,-4.0141,0,-3.9662,-3.9726,-3.9781,-3.984,-3.9879,-3.995,-3.996,-3.9999,-3.9993,-4.0005,-4.0089,-4.012,-4.0177,-4.0201,-4.0196,-4.03,-4.0283,-4.0257,-4.0206,-4.0302,-4.0341,-4.0357,-4.0148,-4.0146,-4.0145,-4.0144,0,0,-3.9814,-3.9871,-3.9892,-3.9917,-3.9964,-4.0013,-4.0082,-4.0138,-4.017,-4.0212,-4.0268,-4.0349,-4.0323,-4.0355,-4.0352,-4.0399,-4.0494,-4.0365,-4.0366,-4.0387,-4.0609,-4.0628,-4.0646,-4.0482,-4.0485,-4.0488,-4.0605,0,-3.9934,-4.0056,-4.0058,-4.0169,-4.0227,-4.0205,-4.0265,-4.0299,-4.0312,-4.0361,-4.0375,-4.0431,-4.0394,-4.0413,-4.0458,-4.0473,-4.0539,-4.0465,-4.0532,-4.0535,-4.0521,-4.0667,-4.0687,-4.0796,-4.062,-4.0623,-4.0624,0,-4.009,-4.0137,-4.0254,-4.0291,-4.0315,-4.0369,-4.042,-4.0468,-4.0506,-4.0511,-4.0546,-4.0536,-4.0604,-4.0552,-4.0645,-4.0594,-4.0622,-4.0633,-4.0638,-4.0643,-4.0584,-4.0674,-4.0831,-4.0847,-4.0649,-4.0647,-4.0645,0,-4.0186,-4.0278,-4.036,-4.0382,-4.0429,-4.0466,-4.0487,-4.0522,-4.0555,-4.0599,-4.062,-4.0671,-4.0698,-4.0737,-4.0741,-4.0703,-4.0833,-4.0782,-4.0838,-4.0837,-4.0865,-4.0863,-4.1027,-4.0886,-4.0885,-4.0885,-4.0885,0,-4.0319,-4.0391,-4.0403,-4.0453,-4.0532,-4.0533,-4.0611,-4.0628,-4.0659,-4.071,-4.0695,-4.0743,-4.0746,-4.0794,-4.0797,-4.0872,-4.0885,-4.089,-4.089,-4.0891,-4.089,-4.0908,-4.0899,-4.0889,-4.0889,-4.0888,-4.0887,0,-4.0439,-4.0451,-4.0538,-4.0574,-4.0585,-4.0641,-4.0672,-4.0718,-4.0729,-4.0794,-4.0809,-4.0826,-4.0883,-4.089,-4.0956,-4.0958,-4.1047,-4.104,-4.1035,-4.1033,-4.1087,-4.1081,-4.1268,-4.1291,-4.1136,-4.1137,-4.1139,0,-4.0523,-4.0577,-4.0619,-4.0653,-4.0676,-4.0731,-4.0764,-4.0766,-4.0802,-4.0848,-4.0888,-4.0943,-4.0987,-4.1078,-4.1095,-4.1145,-4.1137,-4.1199,-4.1145,-4.1143,-4.1136,-4.1132,-4.1136,-4.1209,-4.1211,-4.1212,-4.1213,0,-4.0668,-4.0671,-4.0721,-4.0772,-4.0812,-4.0853,-4.0891,-4.0919,-4.0925,-4.0965,-4.1023,-4.1057,-4.1125,-4.1179,-4.1227,-4.1247,-4.1231,-4.1231,-4.1246,-4.1246,-4.124,-4.1242,-4.1061,-4.1226,-4.1225,-4.1224,-4.1223,-4.1223,-4.0771,-4.0818,-4.0855,-4.091,-4.0938,-4.0974,-4.1018,-4.1035,-4.1084,-4.1139,-4.1137,-4.12,-4.1234,-4.1298,-4.1321,-4.1369,-4.1348,-4.1371,-4.1376,-4.1381,-4.1386,-4.1234,-4.1378,-4.1378,-4.1377,-4.1377,-4.1377,0,-4.0914,-4.0936,-4.0987,-4.104,-4.1083,-4.1066,-4.1106,-4.1142,-4.1198,-4.1232,-4.1276,-4.1341,-4.1393,-4.1414,-4.1464,-4.1498,-4.1492,-4.1511,-4.1508,-4.1512,-4.1402,-4.1383,-4.1515,-4.1515,-4.1515,-4.1515,-4.1515,-4.1515,-4.0994,-4.1071,-4.1078,-4.1168,-4.119,-4.1252,-4.1276,-4.1308,-4.1334,-4.1408,-4.1452,-4.1465,-4.1493,-4.1545,-4.1591,-4.1595,-4.1614,-4.1636,-4.1637,-4.1534,-4.152,-4.1506,-4.1488,-4.164,-4.164,-4.1742,-4.1743,-4.1744]}]]